Regional Weather Roundup
Issued by NWS

Home | Current Version | Previous Version | Text Only | Print | Product List | Glossary Off
Versions: 1 2 3 4 5 6 7 8 9 10 11 12 13 14 15 16 17 18 19 20 21 22 23 24 25 26 27 28 29 30 31 32 33 34 35 36 37 38 39 40 41 42 43 44 45 46 47 48 49 50

000
ASUS43 KMPX 232010
RWRMN
WEATHER ROUNDUP FOR MINNESOTA
NATIONAL WEATHER SERVICE TWIN CITIES/CHANHASSEN MN
300 PM CDT SAT SEP 23 2017


NOTE: "FAIR" INDICATES FEW OR NO CLOUDS BELOW 12,000 FEET WITH NO
SIGNIFICANT WEATHER AND/OR OBSTRUCTIONS TO VISIBILITY. N/A MEANS
CURRENT SKY AND/OR WEATHER CONDITIONS ARE NOT AVAILABLE.

MNZ060>063-068>070-232100-
   Twin Cities Metro

CITY           SKY/WX    TMP DP  RH WIND       PRES   REMARKS
TWIN CITIES    PTSUNNY   88  71  57 S9        29.93F HX  94
ST PAUL        MOSUNNY   87  72  60 SE14G20   29.93F HX  93
CRYSTAL        MOSUNNY   86  68  54 S12       29.93S
BLAINE         PTSUNNY   88  70  55 S10       29.94F HX  92
LAKEVILLE      SUNNY     88  70  55 S7G17     29.95S HX  92
EDEN PRAIRIE   PTSUNNY   86  72  62 S9        29.93F HX  92
SOUTH ST PAUL  MOSUNNY   88  69  54 S8        29.94F HX  92
LAKE ELMO      PTSUNNY   86  72  62 S10G16    29.96F HX  92
$$
MNZ001>005-007-008-013>017-022>024-027-028-232100-
   Northwest Minnesota

CITY           SKY/WX    TMP DP  RH WIND       PRES   REMARKS
BEMIDJI        CLOUDY    55  52  91 NW8       30.03S
HALLOCK          N/A     63  48  59 N12       30.05R
ROSEAU         CLOUDY    57  52  82 NW8       30.04S
WARROAD        CLOUDY    55  52  88 NW7       30.04S
THIEF RVR FALL CLOUDY    57  51  80 N9        30.05F
CROOKSTON      CLOUDY    59  50  72 N12       30.05S
FOSSTON        CLOUDY    54  50  87 N5        30.05S
DETROIT LAKES  CLOUDY    54  52  94 N3        30.04S
MOORHEAD       CLOUDY    57  48  72 N7        30.05R
PARK RAPIDS    LGT RAIN  57  54  89 N7        30.00F
MAHNOMEN       CLOUDY    55  51  86 N9        30.02F
$$
MNZ006-009>011-018-025>026-232100-
   North Central Minnesota

CITY           SKY/WX    TMP DP  RH WIND       PRES   REMARKS
BAUDETTE       CLOUDY    55  53  93 NW9       30.02F
FLAG ISLAND    CLOUDY    55  52  88 NW9       30.02S
INTL FALLS     CLOUDY    58  54  86 W7        30.02R
WASKISH        CLOUDY    55  54  94 NW5       30.03F
BIG FORK       LGT RAIN  59  55  88 CALM      30.04R
LONGVILLE      CLOUDY    61  55  82 N5        30.00F
GRAND RAPIDS   CLOUDY    61  58  90 NW8       30.03S
CRANE LAKE     CLOUDY    61  57  88 CALM      30.02S
ORR            CLOUDY    61  54  77 CALM      29.98F
COOK           CLOUDY    64  57  77 NW5       30.02R
WALKER         CLOUDY    55  53  95 CALM      30.01S
$$
MNZ012-019>021-037-232100-
   Northeast Minnesota

CITY           SKY/WX    TMP DP  RH WIND       PRES   REMARKS
DULUTH         MOSUNNY   82  70  66 SW10      29.96R
ELY            CLOUDY    68  63  83 W7        30.00R
HIBBING        CLOUDY    67  62  84 NW12      30.00S
EVELETH        CLOUDY    73  64  73 NW10      30.01R
DULUTH HARBOR  CLOUDY    82  73  74 SW8       29.92S
GRAND MARAIS     N/A     66  63  90 CALM      29.91F
$$
MNZ029>031-032-039>041-046>048-054>057-064-232100-
   West Central Minnesota

CITY           SKY/WX    TMP DP  RH WIND       PRES   REMARKS
FERGUS FALLS   CLOUDY    55  55 100 N9        30.00F
WHEATON        CLOUDY    54  52  94 N12G17    30.01S
ALEXANDRIA     LGT RAIN  60  58  92 E10       29.96F
ELBOW LAKE     CLOUDY    55  55  98 N13G18    29.96F
WADENA         CLOUDY    55  55 100 E5        29.99F
GLENWOOD       TSTM      61  59  94 NE10      29.97F
APPLETON       TSTM      59  55  88 CALM      29.98R
BENSON         LGT RAIN  59  57  94 S3        29.98F
ORTONVILLE     LGT RAIN  55  52  88 N5        29.99R
MADISON        TSTM      61  61 100 E5        29.95S
WILLMAR        CLOUDY    66  61  82 N7        30.00S THUNDER
$$
MNZ033>034-036-042>043-049>051-058-059-232100-
   Central Minnesota

CITY           SKY/WX    TMP DP  RH WIND       PRES   REMARKS
ST CLOUD       CLOUDY    76  70  82 NW10      29.96R
SAUK CENTRE    TSTM      63  60  90 NW6       30.00F
PAYNESVILLE    CLOUDY    69  64  84 N8        29.99S THUNDER
AITKIN         CLOUDY    70  63  78 CALM      29.98F
PINE RIVER     LGT RAIN  61  55  82 NW6       30.04S
BRAINERD       CLOUDY    68  61  78 N7        29.99F
STAPLES        RAIN      57  57 100 N5        30.00S
LITTLE FALLS   CLOUDY    68  55  64 N5        29.99F
LITCHFIELD     CLOUDY    77  68  73 NW6       29.97R THUNDER
BUFFALO        CLOUDY    82  67  62 S5        29.96S
MAPLE LAKE     CLOUDY    82  72  73 SE3       29.95F
HUTCHINSON     CLOUDY    81  71  71 CALM      29.97S
$$
MNZ037-044-045-052-053-232100-
   East Central Minnesota

CITY           SKY/WX    TMP DP  RH WIND       PRES   REMARKS
PRINCETON      PTSUNNY   82  72  69 SW5       29.95S
MORA           PTSUNNY   77  68  73 W5        29.97S
RUSH CITY      PTSUNNY   83  70  63 SW5       29.94F
MOOSE LAKE     CLOUDY    79  70  73 SW3       29.94S
HINCKLEY       CLOUDY    81  73  78 W3        29.95S
CLOQUET        PTSUNNY   81  68  65 S7        29.96S
MCGREGOR       CLOUDY    73  66  78 NW10      29.98F
$$
MNZ071>073-080-081-089-090-097-098-232100-
   Southwest Minnesota

CITY           SKY/WX    TMP DP  RH WIND       PRES   REMARKS
MONTEVIDEO     TSTM      59  57  94 SE5       29.98F
GRANITE FALLS  CLOUDY    63  58  83 NW6       30.00S THUNDER
CANBY          TSTM      58  56  95 CALM      29.98R
MARSHALL       TSTM      60  56  86 N8        29.99F
REDWOOD FALLS  CLOUDY    72  61  68 NW12      29.95S
OLIVIA         CLOUDY    70  63  78 NW12      29.97S
PIPESTONE      PTSUNNY   64  57  77 NE12      29.96F THUNDER
WORTHINGTON    CLOUDY    83  69  62 SE10      29.94F
JACKSON        PTSUNNY   86  66  51 S15       29.95S
TRACY          CLOUDY    64  60  84 N9        29.97F
SLAYTON        CLOUDY    69  54  58 N15       29.98R
$$
MNZ065>067-074>077-082>085-091>093-232100-
   South Central Minnesota

CITY           SKY/WX    TMP DP  RH WIND       PRES   REMARKS
MANKATO        MOSUNNY   87  70  56 S10       29.94F HX  92
NEW ULM        PTSUNNY   86  68  54 S7        29.91F
ST JAMES       MOSUNNY   90  66  45 SE12      29.93F HX  92
FAIRMONT       MOSUNNY   87  68  52 S13G24    29.94F HX  90
FARIBAULT      MOSUNNY   86  70  58 S10       29.96S HX  90
OWATONNA       SUNNY     88  70  55 S12       29.96F HX  92
WASECA         MOSUNNY   86  66  51 S10       29.97S
ALBERT LEA     SUNNY     90  68  48 S12G17    29.96F HX  93
$$
MNZ078>079-086>088-094>096-232100-
   Southeast Minnesota

CITY           SKY/WX    TMP DP  RH WIND       PRES   REMARKS
ROCHESTER      MOSUNNY   86  68  54 S9        29.99F
RED WING       SUNNY     90  63  40 S9        29.94F HX  90
STANTON        MOSUNNY   88  68  52 S9G16     29.94F HX  91
DODGE CENTER   MOSUNNY   88  64  45 S8G17     29.98F
WINONA         MOSUNNY   91  63  38 SW8       29.97F HX  92
AUSTIN         MOSUNNY   86  66  51 S8G18     29.97F
PRESTON        MOSUNNY   88  64  43 S14G22    30.00F
$$
ABBREVIATIONS USED IN REMARKS
   TC - TEMPERATURES IN CELSIUS
  WCI - WIND CHILL INDEX
   HX - HEAT INDEX
  VSB - VISIBILITY
$$




USA.gov is the U.S. government's official web portal to all federal, state and local government web resources and services.